Home > Time Zones > World Clock > Weather > Russia > Perm > Past weeks

Flag for Russia Weather past 2 weeks in Perm, Russia

Now
61 °F

Cloudy.


Feels Like: 61 °F
Forecast: 59 / 73 °F
Wind: 8 mph from East

Location: Perm'/Bolshoe Savino

Current Time: Aug 20, 2014 at 11:16:20 AM

Latest Report: Aug 20, 2014 at 10:30 AM


Visibility: N/A

Pressure: 30.01 "Hg

Humidity: 94%

Dew point: 59 °F

Location of PermLocation

Historic Weather in Perm — Graph

°F

Perm temperature yesterday

Maximum temperature yesterday: 72 °F (at 5:00 PM)
Minimum temperature yesterday: 59 °F (at 4:30 AM)
Average temperature yesterday: 64 °F

Past Weeks' High & Low Weather Summary

 TemperatureHumidityPressure
High86 °F (Aug 8, 5:00 PM)100% (Aug 6, 3:30 AM)30.15 "Hg (Aug 6, 3:30 AM)
Low41 °F (Aug 14, 7:00 AM)33% (Aug 13, 6:30 PM)29.45 "Hg (Aug 11, 4:30 AM)
Average66 °F79%29.86 "Hg
* Reported Aug 5 10:00 AM — Aug 20 10:00 AM, Perm, Weather by CustomWeather, © 2014

Note: Actual official high and low records may vary slightly from our data, if they occured in-between our weather recording intervals... More about our weather records

Advertising

Perm weather history for previous 24 hours

 ConditionsComfort  
Time TempWeatherWind HumidityBarometerVisibility
10:00 AM
Aug 20
61 °FSprinkles. Mostly cloudy.8 mph94%30.01 "HgN/A
9:30 AM59 °FSprinkles. More clouds than sun.6 mph100%30.04 "HgN/A
9:00 AM59 °FSunny.3 mph100%30.04 "Hg10 mi
8:30 AM59 °FSprinkles. More clouds than sun.3 mph100%30.04 "HgN/A
8:00 AM59 °FSprinkles. More clouds than sun.3 mph94%30.07 "HgN/A
7:30 AM57 °FSprinkles. Mostly cloudy.3 mph100%30.07 "Hg5 mi
7:00 AM59 °FSprinkles. Broken clouds.1 mph94%30.07 "HgN/A
6:30 AM57 °FClear.1 mph100%30.09 "Hg10 mi
6:00 AM57 °FClear.3 mph100%30.09 "Hg10 mi
5:30 AM57 °FClear.3 mph100%30.09 "Hg10 mi
5:00 AM55 °FPassing clouds.3 mph100%30.09 "Hg6 mi
4:30 AM55 °FFog.1 mph94%30.12 "Hg1 mi
4:00 AM55 °FPassing clouds.3 mph100%30.12 "Hg4 mi
3:30 AM57 °FPassing clouds.8 mph94%30.12 "Hg4 mi
3:00 AM57 °FPassing clouds.6 mph100%30.12 "Hg4 mi
2:30 AM57 °FPassing clouds.6 mph94%30.12 "Hg4 mi
2:00 AM57 °FPassing clouds.3 mph94%30.15 "Hg5 mi
1:30 AM57 °FClear.3 mph94%30.15 "Hg10 mi
1:00 AM57 °FClear.6 mph94%30.15 "Hg10 mi
12:30 AM57 °FClear.3 mph100%30.12 "Hg10 mi
12:00 AM59 °FClear.No wind94%30.12 "Hg10 mi
11:30 PM
Aug 19
59 °FClear.3 mph94%30.12 "Hg10 mi
11:00 PM61 °FClear.3 mph94%30.12 "Hg10 mi
10:30 PM63 °FClear.3 mph88%30.12 "Hg10 mi
10:00 PM63 °FClear.1 mph88%30.12 "Hg10 mi
9:30 PM66 °FSunny.1 mph78%30.12 "Hg10 mi
9:00 PM68 °FPartly sunny.3 mph73%30.12 "HgN/A
8:30 PM68 °FScattered clouds.3 mph78%30.12 "HgN/A
8:00 PM70 °FScattered clouds.6 mph69%30.12 "Hg6 mi
7:30 PM72 °FScattered clouds.3 mph65%30.12 "HgN/A
7:00 PM72 °FPartly sunny.1 mph65%30.09 "HgN/A
6:30 PM72 °FPartly sunny.3 mph65%30.09 "HgN/A
6:00 PM72 °FPartly sunny.3 mph65%30.09 "HgN/A
5:30 PM70 °FPartly sunny.1 mph69%30.09 "HgN/A
5:00 PM72 °FPartly sunny.1 mph65%30.12 "HgN/A
4:30 PM70 °FBroken clouds.3 mph69%30.09 "HgN/A
4:00 PM70 °FBroken clouds.3 mph69%30.09 "HgN/A
3:30 PM68 °FPartly sunny.No wind78%30.09 "HgN/A
3:00 PM66 °FPartly sunny.3 mph78%30.09 "HgN/A
2:30 PM66 °FPartly sunny.3 mph78%30.09 "HgN/A
2:00 PM64 °FOvercast.6 mph88%30.09 "HgN/A
1:30 PM64 °FOvercast.6 mph88%30.09 "HgN/A
1:00 PM64 °FOvercast.6 mph88%30.07 "HgN/A
12:30 PM64 °FMostly cloudy.6 mph83%30.07 "HgN/A
12:00 PM63 °FMostly cloudy.8 mph88%30.07 "HgN/A
11:30 AM63 °FMostly cloudy.8 mph94%30.07 "HgN/A
11:00 AM63 °FMostly cloudy.6 mph94%30.07 "HgN/A
Weather by CustomWeather, © 2014

See weather overviewHow to use our weather pages